DUCHIFAT-3

Last updated on Mon Feb 10 2025 00:03:05 GMT+0000 (Coordinated Universal Time)

1 44854U 19089C 25040.31663099 .00036676 00000+0 11004-2 0 9995 2 44854 36.9496 32.6470 0010536 265.8093 94.1456 15.33505682284465
UTC large
Height (km)
Speed (km/s)
/
Latitude / Longitude
Inclination (degrees)
Orbital Period (minutes)
Azimuth
Elevation
Range (km)
Doppler Factor

Next 0 passes for location: London (51.5072 / 0.1276)

Sorry there are no passes over London.